Regional Weather Roundup
Issued by NWS Charleston, SC

Current Version | Previous Version | Graphics & Text | Print | Product List | Glossary On
Versions: 1 2 3 4 5 6 7 8 9 10 11 12 13 14 15 16 17 18 19 20 21 22 23 24 25 26 27 28 29 30 31 32 33 34 35 36 37 38 39 40 41 42 43 44 45 46 47 48 49 50
045 ASUS42 KCHS 051927 RWRCHS REGIONAL WEATHER ROUNDUP NATIONAL WEATHER SERVICE CHARLESTON SC 200 PM EST MON DEC 05 2016 NOTE: "FAIR" INDICATES FEW OR NO CLOUDS BELOW 12,000 FEET WITH NO SIGNIFICANT WEATHER AND/OR OBSTRUCTIONS TO VISIBILITY. NOT ALL STATIONS ARE QUALITY CONTROLLED. USE DATA WITH CAUTION... ESPECIALLY DEWPOINT OBSERVATIONS. SCZ027-030-031-034>040-042>050-052000- ...SOUTHEAST SOUTH CAROLINA... CITY SKY/WX TMP DP RH WIND PRES REMARKS N CHARLESTON CLOUDY 61 54 77 N7 29.95F WATERFRONT PRK N/A 57 55 93 VRB2 29.96F MOUNT PLEASANT CLOUDY 61 55 82 CALM 29.95F JOHNS ISLAND CLOUDY 61 57 88 CALM 29.95F PINOPOLIS N/A 54 52 94 VRB3 29.89F MONCKS CORNER FAIR 55 52 88 CALM 29.95F SUMMERVILLE MOCLDY 59 59 100 N6 29.95F BEAUFORT MCAS CLOUDY 60 56 86 N6 29.94F BEAUFORT ARPT CLOUDY 59 55 88 NE7 29.93F FOG HILTON HEAD IS CLOUDY 64 59 82 N5 29.95F WALTERBORO CLOUDY 61 N/A N/A CALM 29.96F ALLENDALE LGT RAIN 57 54 88 CALM 29.94F ...SOUTHERN MIDLANDS AND PEE DEE... CITY SKY/WX TMP DP RH WIND PRES REMARKS GEORGETOWN NOT AVBL KINGSTREE CLOUDY 55 48 76 N5 29.96F ORANGEBURG CLOUDY 57 52 83 NE6 29.96F BARNWELL NOT AVBL AIKEN MOCLDY 55 50 82 NE6 29.98F MANNING NOT AVBL COLUMBIA CLOUDY 57 49 74 E6 29.96F SUMTER MOSUNNY 56 48 74 VRB3 29.95F FLORENCE CLOUDY 59 50 72 CALM 29.98F MYRTLE BEACH NOT AVBL N MYRTLE BEACH PTSUNNY 60 51 72 VRB6 29.96F $$ GAZ063-065-086>088-099>101-113>116-118-119-134>141-150-052000- ...SOUTHEAST GEORGIA... CITY SKY/WX TMP DP RH WIND PRES REMARKS SAVANNAH ARPT CLOUDY 61 56 83 CALM 29.94F HUNTER AAF CLOUDY 61 61 100 CALM 29.91F FORT STEWART CLOUDY 61 59 94 CALM 29.90F FOG STATESBORO CLOUDY 59 58 95 CALM 29.93F SYLVANIA CLOUDY N/A N/A N/A CALM 29.94F CLAXTON RAIN 63 61 94 NE5 29.92F ...CSRA...CENTRAL AND FAR SOUTHEAST GEORGIA... CITY SKY/WX TMP DP RH WIND PRES REMARKS THOMSON PTSUNNY 55 53 93 CALM 29.98F AUGUSTA-BUSH PTSUNNY 57 49 74 CALM 29.94F AUGUSTA-DANIEL PTSUNNY 56 48 74 N6 29.95F SWAINSBORO RAIN 54 54 100 CALM 29.93F VIDALIA DRIZZLE 59 59 100 NE5 29.92F EASTMAN RAIN 56 56 99 E3 29.94F HAZLEHURST CLOUDY 59 59 100 CALM 29.91F ALMA CLOUDY 61 61 100 CALM 29.90F FOG WAYCROSS RAIN 67 67 100 NE3 29.90F JESUP CLOUDY 64 64 100 CALM 29.91F FOG BAXLEY CLOUDY 61 61 100 CALM 29.91F FOG BRUNSWICK CLOUDY 77 72 83 W5 29.91F SAINT SIMONS CLOUDY 75 67 76 SE6 29.91F $$ SCZ027-028-034-036>038-045-046-048>050-GAZ119-141-052000- ...LAKE AND SUPPLEMENTAL COASTAL OBSERVATIONS... STATION/POSITION TIME TEMP WIND PRES WAVE SWELL AIR SEA DIR/SP/G HT/PER HT/PER/DIR (UTC) (F) (DEG/KT/KT) (MB) (FT/S) (FT/S/D) WINYAH BAY 1830 58 330/ 3 1014.0F LAKE MURRAY 1920 56 CALM / 2 1013.9 ACE BASIN NERRS 1845 60 360/ 1 1014.0F FORT PULASKI 1900 59 62 70/ 4/ 4 1013.8 SAPELO ISLAND 1900 65 60/ 7 1013.0 $$ ANZ835-935-AMZ111-154-330-350-352-354-370-450-454-472-052000- ...C-MAN AND BUOY OBSERVATIONS... STATION/POSITION TIME TEMP WIND PRES WAVE SWELL AIR SEA DIR/SP/G HT/PER HT/PER/DIR (UTC) (F) (DEG/KT/KT) (MB) (FT/S) (FT/S/D) BUOY 41004 1850 64 74 340/ 10/ 12 1013.8F 6/ 7 5/160/ 7 BUOY 41008 1750 66 65 240/ 2/ 4 1014.1 4/ 6 3/150/ 6 FOLLY BEACH CMAN 1900 58 360/ 2/ 3 1014.5F CAPERS NEARSHORE 1908 57 62 60/ 4/ 8 1013.9F FRIPP NEARSHORE 1908 59 62 50/ 6/ 10 1013.4F STATION/POSITION TIME TEMP WIND PRES WAVE SWELL AIR SEA DIR/SP/G HT/PER HT/PER/DIR (UTC) (F) (DEG/KT/KT) (MB) (FT/S) (FT/S/D) 5E ST. MARYS GA 1900 67 N/A 3/ 5 FRYING PAN BUOY 1910 60 74 10/ 14/ 17 1014.0 BUOY 41025 1850 57 72 360/ 17/ 21 1014.0S 6/ 8 3/190/ 8 CAPE LOOKOUT NC 1900 56 360/ 9/ 12 1014.5R BUOY 41002 1850 73 73 190/ 21/ 25 1013.9F 7/ 6 2/ 30/11 BUOY 41010 NOT AVBL ST AUGUSTINE FL 1900 71 68 130/ 9/ 10 1013.4F $$

USA.gov is the U.S. government's official web portal to all federal, state and local government web resources and services.